Tracking 28565 objects as of 3-Mar-2024
HD Live streaming from Space Station
objects crossing your sky now

OBJECT G

Track OBJECT G now!
10-day predictions


NORAD ID: 55254
Int'l Code: 2023-007G
Perigee: 448.9 km
Apogee: 455.5 km
Inclination: 97.3 °
Period: 93.5 minutes
Semi major axis: 6823 km
RCS: Unknown
Launch date: January 15, 2023
Source: People's Republic of China (PRC)
Launch site: Taiyaun Space Center, China (TSC)
Your satellite tracking list
Your tracking list is empty




NASA's NSSDC Master Catalog

Two Line Element Set (TLE):
1 55254U 23007G   24063.59812415  .00031951  00000-0  79106-3 0  9998
2 55254  97.3279 138.8824 0004774 219.8906 140.1990 15.40355053 63218
Source of the keplerian elements: AFSPC